Lexington Weather

Lexington, Massachusetts, USA

77°F
8/3/2020 7:20am 
  • Lexington Conditions: Clear
  • Temperature: 76.5°F / 24.7°CColder 0.1°F than last hour.
  • Dew Point: 73.9°FDecreased 1.5°Fsince last hour.
  • Relative Humidity: 92%Decreased 4.0% since last hour.
  • Wind: Wind from ENE ENE 3 mph, 10-min avg: 3 mph, gust: 8 mph
  • Barometer: 29.84 in Steady
  • Visibility: 10 miles
  • Rain Today: 0.00 in
  •   

Regional Weather Roundup
for Boston / Norton, MA

        
000
ASUS41 KBOX 021504
RWRBOX

REGIONAL WEATHER ROUNDUP
NATIONAL WEATHER SERVICE BOSTON/NORTON MA
1100 AM EDT SUN AUG 02 2020

NOTE:  "FAIR" INDICATES FEW OR NO CLOUDS BELOW 12,000 FEET WITH NO 
SIGNIFICANT WEATHER AND/OR OBSTRUCTIONS TO VISIBILITY.

MAZALL-021600-
EASTERN MASSACHUSETTS
  
CITY           SKY/WX    TMP DP  RH WIND       PRES   REMARKS
BOSTON         PTSUNNY   82  65  56 S10       29.99F                  
BEVERLY        PTSUNNY   82  65  56 S10       29.99S                  
LAWRENCE       PTSUNNY   80  67  64 VRB5      30.01S                  
BEDFORD        PTSUNNY   84  66  54 SW8       29.98S                  
BLUE HILL      NOT AVBL                                               
NORWOOD        PTSUNNY   82  67  60 S10       29.99F                  
MARSHFIELD     PTSUNNY   86  64  48 S10G17    30.00S                  
PLYMOUTH       PTSUNNY   82  63  52 S12       30.02S                  
TAUNTON        PTSUNNY   84  64  50 S10       30.00S                  
NEW BEDFORD    PTSUNNY   82  70  66 S12       30.01S                  
$$

MAZALL-021600-
CAPE COD AND THE ISLANDS
  
CITY           SKY/WX    TMP DP  RH WIND       PRES   REMARKS
FALMOUTH       SUNNY     81  64  57 S14       30.03S                  
HYANNIS        SUNNY     79  68  69 S13       30.02S                  
CHATHAM        SUNNY     80  67  64 S7        30.06R                  
PROVINCETOWN   MOSUNNY   80  68  66 S12G20    30.03R                  
NANTUCKET      SUNNY     76  68  76 SE14      30.05R                  
MARTHAS VNYRD  MOSUNNY   81  70  69 SE12      30.03S                  
$$
 
MAZALL-021600-
CENTRAL AND WESTERN MASSACHUSETTS
  
CITY           SKY/WX    TMP DP  RH WIND       PRES   REMARKS
WORCESTER      CLOUDY    77  65  66 S10       30.02F                  
FITCHBURG      PTSUNNY   81  62  52 S10       29.99F                  
ORANGE         LGT RAIN  77  64  64 S6        30.00S                  
SPRINGFIELD    NOT AVBL                                               
WESTFIELD      CLOUDY    80  68  66 S13       29.96S                  
NORTH ADAMS    PTSUNNY   71  64  78 E6        29.96F                  
PITTSFIELD     CLOUDY    74  67  78 SE9       29.97F                  
$$
 
RIZALL-021600-
RHODE ISLAND
  
CITY           SKY/WX    TMP DP  RH WIND       PRES   REMARKS
PROVIDENCE     PTSUNNY   80  70  71 S13       30.00F                  
NEWPORT        PTSUNNY   79  71  76 S14       30.01F                  
BLOCK ISLAND   SUNNY     80  72  76 S14       30.01S                  
SMITHFIELD     CLOUDY    79  69  71 S6        30.01F                  
WESTERLY       MOSUNNY   81  70  69 S9        30.01S                  
$$
 
CTZALL-021600-
CONNECTICUT
  
CITY           SKY/WX    TMP DP  RH WIND       PRES   REMARKS
BRADLEY INTL   CLOUDY    81  66  60 S15       29.96S                  
HARTFORD       CLOUDY    81  67  62 S9        29.96S                  
BRIDGEPORT     CLOUDY    80  72  76 SE8       29.95F                  
DANBURY        CLOUDY    76  71  85 SE5       29.97S                  
GROTON         MOSUNNY   80  71  74 SE12      29.98F                  
NEW HAVEN      PTSUNNY   83  73  72 SE12      29.96F                  
CHESTER        NOT AVBL                                               
MERIDEN        CLOUDY    80  68  66 SE9       29.96S                  
WILLIMANTIC    PTSUNNY   81  68  64 S12       29.98F                  
OXFORD         CLOUDY    76  71  85 S9        29.99S                  
$$

MEZ002-015-021-024-NHZ003-005-008-011-012-014-VTZ005-008-021600-
NORTHERN NEW ENGLAND
  
CITY           SKY/WX    TMP DP  RH WIND       PRES   REMARKS
PORTLAND ME    PTSUNNY   80  69  69 SE8       30.00R                  
BANGOR ME      PTSUNNY   82  67  60 S12       30.00S                  
CONCORD NH     PTSUNNY   77  66  68 SE6       29.99S                  
MANCHESTER NH  PTSUNNY   81  67  62 S7        29.97F                  
NASHUA NH      PTSUNNY   81  68  64 VRB6      29.99F                  
PORTSMOUTH NH  CLOUDY    82  65  55 SW6       29.98S                  
JAFFREY NH     PTSUNNY   77  62  59 S8        30.02S                  
KEENE NH       CLOUDY    77  68  73 S9        29.99S                  
BURLINGTON VT  CLOUDY    75  65  70 SE7       29.90F                  
MT. WASHINGTON FOG       54  54 100 S26G37      N/A  VSB 1/16         
$$

NYZ052-076-021600-
EASTERN NEW YORK
  
CITY           SKY/WX    TMP DP  RH WIND       PRES   REMARKS
ALBANY         CLOUDY    73  68  84 SE9       29.91F                  
NEW YORK CITY  PTSUNNY   82  73  74 S16G22    29.92S                  
$$
 
ANZALL-021600-
MARINE OBSERVATIONS
  
STATION/POSITION TIME  TEMP    WIND        PRES    VSBY  WAVE
                       AIR SEA DIR/SP/G                  HT/PER
                 (UTC) (F)     (DEG/KT/KT) (MB)    (MI)  (FT/S)
BOSTON BUOY      1450   72 72  130/ 10/ 12 1014.6S         2/10
BUZZARDS BAY     1400          160/ 11/ 12 1017.5S
NANTUCKET SOUND  1440      76  170/ 14/ 16 1016.4
MASS BAY-STELLWA 1404   73     200/ 10/ 12 1013.7R  1 7/8  2/ 5
ISLE OF SHOALS   1400   72     180/ 10/ 10 1015.2S
S OF BLOCK IS    1426      72                N/A           3/10
$$

......................KEY.........................
  SKY/WX - SKY CONDITION/PRESENT WEATHER
  TMP    - TEMPERATURE IN FAHRENHEIT
  DWPT   - DEWPOINT IN FAHRENHEIT
  RH     - RELATIVE HUMIDITY IN PERCENT
  WIND   - DIRECTION AND SPEED IN MPH
  PRES   - MEAN SEA LEVEL PRESSURE IN INCHES OF HG
  WCI    - WIND CHILL INDEX
  VSB    - VISIBILITY IN MILES
  HX     - HEAT INDEX
  TC     - TEMPERATURE IN CELSIUS
  VRB    - VARIABLE WIND DIRECTION
  N/A    - NOT AVAILABLE
  
      

Other recent Regional Weather Roundups

Mon Aug 3, 7:04am

Mon Aug 3, 6:04am

Mon Aug 3, 5:04am

Mon Aug 3, 4:04am

Mon Aug 3, 3:04am

Mon Aug 3, 2:04am

Mon Aug 3, 1:04am

Mon Aug 3, 12:05am

Sun Aug 2, 11:04pm

Sun Aug 2, 10:04pm

Sun Aug 2, 9:04pm

Sun Aug 2, 8:04pm

Sun Aug 2, 7:04pm

Sun Aug 2, 6:04pm

Sun Aug 2, 5:04pm

Sun Aug 2, 4:05pm

Sun Aug 2, 3:04pm

Sun Aug 2, 2:05pm

Sun Aug 2, 1:04pm

Sun Aug 2, 12:04pm

Sun Aug 2, 10:04am

Sun Aug 2, 9:05am

Sun Aug 2, 8:05am

Sun Aug 2, 7:04am

Sun Aug 2, 6:04am

Sun Aug 2, 5:04am

Sun Aug 2, 4:05am

Sun Aug 2, 3:04am

Sun Aug 2, 2:04am

Sun Aug 2, 1:04am

Sun Aug 2, 12:05am

Sat Aug 1, 11:04pm

Sat Aug 1, 10:04pm

Sat Aug 1, 9:04pm

Sat Aug 1, 8:05pm

Sat Aug 1, 7:04pm

Sat Aug 1, 6:04pm

Sat Aug 1, 5:05pm

Sat Aug 1, 4:05pm

Sat Aug 1, 3:04pm

Sat Aug 1, 2:04pm

Sat Aug 1, 1:04pm

Sat Aug 1, 12:04pm

Sat Aug 1, 11:05am

Sat Aug 1, 10:05am

Sat Aug 1, 9:04am

Sat Aug 1, 8:04am

Sat Aug 1, 7:04am

Sat Aug 1, 6:04am

Sat Aug 1, 5:04am

Sat Aug 1, 4:05am

Sat Aug 1, 3:04am

Sat Aug 1, 2:04am

Sat Aug 1, 1:04am

Sat Aug 1, 12:05am

Fri Jul 31, 11:05pm

Fri Jul 31, 10:04pm

Fri Jul 31, 9:04pm

Fri Jul 31, 8:05pm

Fri Jul 31, 7:05pm

Fri Jul 31, 6:04pm

Fri Jul 31, 5:04pm

Fri Jul 31, 4:05pm

Fri Jul 31, 3:04pm

Fri Jul 31, 2:05pm

Fri Jul 31, 1:04pm

Fri Jul 31, 12:04pm

Fri Jul 31, 11:04am

Fri Jul 31, 10:04am

Fri Jul 31, 9:04am

Fri Jul 31, 8:04am

Fri Jul 31, 7:04am

Fri Jul 31, 6:04am

Fri Jul 31, 5:04am

Fri Jul 31, 4:04am

Fri Jul 31, 3:04am

Fri Jul 31, 2:04am

Fri Jul 31, 1:05am

Fri Jul 31, 12:04am

Thu Jul 30, 11:04pm

Thu Jul 30, 10:04pm

Thu Jul 30, 9:04pm

Thu Jul 30, 8:04pm

Thu Jul 30, 7:05pm

Thu Jul 30, 6:04pm

Thu Jul 30, 5:04pm

Thu Jul 30, 4:05pm

Thu Jul 30, 3:04pm

Thu Jul 30, 2:05pm

Thu Jul 30, 1:04pm

Thu Jul 30, 12:04pm

Thu Jul 30, 11:04am

Thu Jul 30, 10:05am

Thu Jul 30, 9:04am

Thu Jul 30, 8:04am

Thu Jul 30, 7:04am

Thu Jul 30, 6:04am

Thu Jul 30, 5:04am

Thu Jul 30, 4:04am

Thu Jul 30, 3:04am

Thu Jul 30, 2:04am

Thu Jul 30, 1:04am

Thu Jul 30, 12:04am

Wed Jul 29, 11:04pm

Wed Jul 29, 10:04pm

Wed Jul 29, 9:04pm

Wed Jul 29, 8:04pm

Wed Jul 29, 7:05pm

Wed Jul 29, 6:05pm

Wed Jul 29, 5:04pm

Wed Jul 29, 4:04pm

Wed Jul 29, 3:04pm

Wed Jul 29, 2:04pm

Wed Jul 29, 1:05pm

Wed Jul 29, 12:05pm

Wed Jul 29, 11:04am

Wed Jul 29, 10:04am

Wed Jul 29, 9:04am

Wed Jul 29, 8:04am

Wed Jul 29, 7:04am

Wed Jul 29, 6:04am

Wed Jul 29, 5:04am

Wed Jul 29, 4:04am

Wed Jul 29, 3:04am

Wed Jul 29, 2:04am

Wed Jul 29, 1:04am

Wed Jul 29, 12:05am

Tue Jul 28, 11:05pm

Tue Jul 28, 10:05pm

Tue Jul 28, 9:04pm

Tue Jul 28, 8:04pm

Tue Jul 28, 7:04pm

Tue Jul 28, 6:04pm

Tue Jul 28, 5:04pm

Tue Jul 28, 4:05pm

Tue Jul 28, 3:05pm

Tue Jul 28, 2:04pm

Tue Jul 28, 1:05pm

Tue Jul 28, 12:04pm

Tue Jul 28, 11:04am

Tue Jul 28, 10:04am

Tue Jul 28, 9:04am

Tue Jul 28, 8:04am

Tue Jul 28, 7:04am

Tue Jul 28, 6:04am

Tue Jul 28, 5:04am

Tue Jul 28, 4:04am

Tue Jul 28, 3:04am

Tue Jul 28, 2:04am

Tue Jul 28, 1:04am

Tue Jul 28, 12:05am

Mon Jul 27, 11:04pm

Mon Jul 27, 10:05pm

Mon Jul 27, 9:05pm

Mon Jul 27, 8:04pm

Mon Jul 27, 7:04pm

Mon Jul 27, 6:05pm

Mon Jul 27, 5:05pm

Mon Jul 27, 4:04pm

Mon Jul 27, 3:04pm

Mon Jul 27, 2:04pm

Mon Jul 27, 1:04pm

Mon Jul 27, 12:04pm

Mon Jul 27, 11:04am

Mon Jul 27, 10:04am

Mon Jul 27, 9:04am

Mon Jul 27, 8:04am

Meta data:

ID: 6b592450-dfb9-4de7-b4b1-3b9871736b96
Link: https://api.weather.gov/products/6b592450-dfb9-4de7-b4b1-3b9871736b96